AIC116 KJFK-VABB

Flight info

Callsign AIC116
Flight time N/A
Altitude 29000
Route MERIT DCT HFD DCT WITCH DCT ALLEX DCT JOOPY/M085F310 DCT 49N050W 50N040W 50N030W 49N020W 48N015W DCT ETIKI DCT REGHI/N0493F310 DCT ADSET/N0485F330 DCT LEMKA DCT BEBIX DCT YAQEL DCT RETNO DCT NIRDO DCT DOKAR DCT SUNEV DCT KUTID DCT DINOB/N0483F350 DCT KFN DCT IRA DCT PAXIS L607 NABSI P557 OBRAN L321 REXUM DCT PMA Y214 RAPMA DCT KATIT/N0494F370 DCT MIDGU DCT TULBU DCT AMBOS DCT PARAR DCT SUGID KETOR2A
Aircraft B77W/H-SDE1E2E3FGHIJ2J3J4J5M1RWXY/LB1D1

Departure

Time N/A
Airport John F. Kennedy International Airport (KJFK)

Arrival

Time 2026-05-07 02:01
Airport Chhatrapati Shivaji Maharaj International Airport (VABB)
Time Latitude Longitude Altitude Speed Heading
2026-05-06 23:18 22.96349 51.52757 34798 ft 522 kts 101°
2026-05-06 23:19 22.95795 51.56663 34800 ft 522 kts 101°
2026-05-06 23:19 22.94685 51.64458 34802 ft 522 kts 101°
2026-05-06 23:20 22.93579 51.72202 34799 ft 522 kts 101°
2026-05-06 23:20 22.92462 51.79996 34795 ft 522 kts 101°
2026-05-06 23:21 22.91340 51.87798 34795 ft 522 kts 101°
2026-05-06 23:21 22.90225 51.95524 34792 ft 522 kts 101°
2026-05-06 23:22 22.89096 52.03319 34793 ft 522 kts 101°
2026-05-06 23:22 22.87965 52.11098 34790 ft 522 kts 101°
2026-05-06 23:23 22.86827 52.18897 34788 ft 522 kts 101°
2026-05-06 23:23 22.85695 52.26631 34789 ft 522 kts 101°
2026-05-06 23:24 22.84550 52.34425 34790 ft 522 kts 101°
2026-05-06 23:24 22.83404 52.42203 34782 ft 522 kts 101°
2026-05-06 23:25 22.82264 52.49939 34785 ft 522 kts 101°
2026-05-06 23:25 22.81274 52.57756 35135 ft 524 kts 99°
2026-05-06 23:25 22.80822 52.61679 35492 ft 521 kts 99°
2026-05-06 23:26 22.80376 52.65569 35850 ft 518 kts 99°
2026-05-06 23:26 22.79926 52.69444 36181 ft 516 kts 99°
2026-05-06 23:26 22.79471 52.73298 36478 ft 515 kts 99°
2026-05-06 23:26 22.79015 52.77102 36688 ft 516 kts 99°
2026-05-06 23:27 22.78546 52.80966 36731 ft 518 kts 99°
2026-05-06 23:27 22.77598 52.88715 36772 ft 517 kts 99°
2026-05-06 23:28 22.76810 52.95135 36777 ft 514 kts 99°
2026-05-06 23:28 22.75867 53.02811 36784 ft 512 kts 99°
2026-05-06 23:29 22.74924 53.10455 36781 ft 511 kts 99°
2026-05-06 23:29 22.73984 53.18038 36785 ft 511 kts 99°
2026-05-06 23:30 22.73035 53.25675 36786 ft 511 kts 99°
2026-05-06 23:30 22.72079 53.33329 36785 ft 512 kts 99°
2026-05-06 23:31 22.71124 53.40945 36787 ft 513 kts 99°
2026-05-06 23:31 22.70160 53.48614 36786 ft 514 kts 99°
2026-05-06 23:32 22.69190 53.56294 36789 ft 514 kts 99°
2026-05-06 23:32 22.68214 53.63984 36779 ft 514 kts 99°
2026-05-06 23:33 22.67244 53.71605 36791 ft 513 kts 99°
2026-05-06 23:33 22.66262 53.79293 36780 ft 513 kts 99°
2026-05-06 23:34 22.65287 53.86891 36788 ft 512 kts 99°
2026-05-06 23:34 22.64301 53.94546 36787 ft 511 kts 99°
2026-05-06 23:35 22.63321 54.02130 36782 ft 511 kts 99°
2026-05-06 23:35 22.62331 54.09755 36787 ft 510 kts 99°
2026-05-06 23:36 22.61341 54.17359 36791 ft 510 kts 99°
2026-05-06 23:36 22.60352 54.24922 36788 ft 509 kts 99°
2026-05-06 23:37 22.59360 54.32486 36786 ft 509 kts 99°
2026-05-06 23:37 22.58357 54.40097 36792 ft 509 kts 99°
2026-05-06 23:38 22.57352 54.47698 36793 ft 509 kts 99°
2026-05-06 23:38 22.56351 54.55245 36788 ft 509 kts 99°
2026-05-06 23:39 22.55338 54.62845 36790 ft 509 kts 99°
2026-05-06 23:39 22.54329 54.70394 36796 ft 509 kts 99°
2026-05-06 23:40 22.53310 54.77992 36792 ft 509 kts 99°
2026-05-06 23:40 22.52288 54.85587 36795 ft 509 kts 100°
2026-05-06 23:41 22.51267 54.93138 36795 ft 510 kts 100°
2026-05-06 23:41 22.50238 55.00726 36797 ft 509 kts 100°
2026-05-06 23:42 22.49204 55.08323 36801 ft 509 kts 100°
2026-05-06 23:42 22.48174 55.15870 36799 ft 509 kts 100°
2026-05-06 23:43 22.47139 55.23418 36806 ft 509 kts 100°
2026-05-06 23:43 22.46100 55.30989 36811 ft 509 kts 99°
2026-05-06 23:44 22.46009 55.38659 36821 ft 511 kts 84°
2026-05-06 23:44 22.47533 55.46119 36834 ft 512 kts 73°
2026-05-06 23:45 22.49733 55.53456 36815 ft 512 kts 72°
2026-05-06 23:45 22.51933 55.60764 36824 ft 513 kts 72°
2026-05-06 23:46 22.54088 55.68121 36828 ft 513 kts 73°
2026-05-06 23:46 22.56221 55.75518 36833 ft 513 kts 73°
2026-05-06 23:47 22.58341 55.82893 36835 ft 514 kts 73°
2026-05-06 23:47 22.60455 55.90256 36840 ft 514 kts 73°
2026-05-06 23:48 22.62577 55.97648 36844 ft 514 kts 73°
2026-05-06 23:48 22.64699 56.05054 36849 ft 514 kts 73°
2026-05-06 23:49 22.66814 56.12450 36855 ft 514 kts 73°
2026-05-06 23:49 22.68926 56.19852 36859 ft 514 kts 73°
2026-05-06 23:50 22.71039 56.27269 36860 ft 514 kts 73°
2026-05-06 23:50 22.74187 56.38348 36872 ft 514 kts 73°
2026-05-06 23:51 22.76287 56.45758 36876 ft 514 kts 73°
2026-05-06 23:51 22.78375 56.53136 36883 ft 514 kts 73°
2026-05-06 23:52 22.80477 56.60581 36890 ft 514 kts 73°
2026-05-06 23:52 22.82554 56.67953 36894 ft 515 kts 73°
2026-05-06 23:53 22.84649 56.75401 36906 ft 515 kts 73°
2026-05-06 23:53 22.86729 56.82811 36916 ft 515 kts 73°
2026-05-06 23:54 22.88816 56.90260 36914 ft 515 kts 73°
2026-05-06 23:54 22.90880 56.97643 36933 ft 515 kts 73°
2026-05-06 23:55 22.92960 57.05097 36927 ft 515 kts 73°
2026-05-06 23:55 22.95030 57.12528 36942 ft 514 kts 73°
2026-05-06 23:56 22.97087 57.19928 36943 ft 514 kts 73°
2026-05-06 23:56 22.99126 57.27372 36943 ft 514 kts 76°
2026-05-06 23:57 23.00316 57.35025 36939 ft 513 kts 87°
2026-05-06 23:57 23.00544 57.42725 36944 ft 513 kts 89°
2026-05-06 23:58 23.00699 57.50480 36936 ft 513 kts 89°
2026-05-06 23:58 23.00886 57.58241 36933 ft 513 kts 89°
2026-05-06 23:59 23.01097 57.65954 36915 ft 513 kts 89°
2026-05-06 23:59 23.01313 57.73718 36906 ft 513 kts 89°
2026-05-07 00:00 23.01522 57.81422 36900 ft 514 kts 89°
2026-05-07 00:00 23.01693 57.87884 36897 ft 513 kts 89°
2026-05-07 00:01 23.01927 57.96914 36886 ft 513 kts 89°
2026-05-07 00:01 23.02124 58.04686 36872 ft 513 kts 89°
2026-05-07 00:02 23.02316 58.12441 36877 ft 513 kts 89°
2026-05-07 00:02 23.02505 58.20150 36874 ft 513 kts 89°
2026-05-07 00:03 23.02690 58.27922 36867 ft 513 kts 89°
2026-05-07 00:03 23.02872 58.35676 36866 ft 513 kts 89°
2026-05-07 00:04 23.03048 58.43378 36855 ft 513 kts 89°
2026-05-07 00:04 23.03222 58.51141 36848 ft 513 kts 89°
2026-05-07 00:05 23.03392 58.58846 36844 ft 512 kts 89°
2026-05-07 00:05 23.03559 58.66593 36844 ft 512 kts 89°
2026-05-07 00:06 23.03721 58.74343 36842 ft 513 kts 89°
2026-05-07 00:06 23.03879 58.82057 36820 ft 513 kts 89°
2026-05-07 00:07 23.04034 58.89826 36817 ft 514 kts 89°
2026-05-07 00:07 23.04185 58.97580 36793 ft 514 kts 89°
2026-05-07 00:08 23.04332 59.05290 36773 ft 513 kts 89°
2026-05-07 00:08 23.04476 59.13038 36764 ft 512 kts 89°
2026-05-07 00:09 23.04616 59.20794 36755 ft 512 kts 89°
2026-05-07 00:09 23.04751 59.28479 36752 ft 512 kts 89°
2026-05-07 00:10 23.04883 59.36215 36743 ft 512 kts 89°
2026-05-07 00:10 23.05012 59.43958 36754 ft 512 kts 89°
2026-05-07 00:11 23.05136 59.51645 36747 ft 512 kts 89°
2026-05-07 00:11 23.05257 59.59391 36747 ft 512 kts 89°
2026-05-07 00:12 23.05373 59.67092 36743 ft 512 kts 89°
2026-05-07 00:12 23.05487 59.74842 36756 ft 512 kts 89°
2026-05-07 00:13 23.05598 59.82600 36765 ft 513 kts 89°
2026-05-07 00:13 23.05531 59.90299 36773 ft 512 kts 95°
2026-05-07 00:14 23.04638 59.96658 36773 ft 511 kts 102°
2026-05-07 00:14 23.03206 60.04229 36757 ft 512 kts 102°
2026-05-07 00:15 23.01776 60.11789 36759 ft 512 kts 102°
2026-05-07 00:15 23.00386 60.19335 36774 ft 512 kts 102°
2026-05-07 00:16 22.99001 60.26928 36775 ft 512 kts 102°
2026-05-07 00:16 22.97615 60.34522 36765 ft 512 kts 102°
2026-05-07 00:17 22.96225 60.42103 36765 ft 512 kts 102°
2026-05-07 00:17 22.94838 60.49638 36765 ft 512 kts 102°
2026-05-07 00:18 22.93433 60.57244 36778 ft 512 kts 102°
2026-05-07 00:18 22.92038 60.64777 36780 ft 512 kts 102°
2026-05-07 00:19 22.90631 60.72355 36783 ft 512 kts 102°
2026-05-07 00:19 22.89220 60.79935 36783 ft 512 kts 102°
2026-05-07 00:20 22.87806 60.87509 36775 ft 512 kts 102°
2026-05-07 00:20 22.86398 60.95032 36769 ft 512 kts 102°
2026-05-07 00:21 22.84978 61.02595 36774 ft 512 kts 102°
2026-05-07 00:21 22.83555 61.10158 36787 ft 512 kts 102°
2026-05-07 00:22 22.82123 61.17742 36775 ft 512 kts 102°
2026-05-07 00:22 22.80702 61.25254 36778 ft 512 kts 102°
2026-05-07 00:23 22.79268 61.32809 36780 ft 512 kts 102°
2026-05-07 00:23 22.77827 61.40386 36781 ft 512 kts 102°
2026-05-07 00:24 22.76391 61.47909 36792 ft 512 kts 102°
2026-05-07 00:24 22.74945 61.55469 36789 ft 512 kts 102°
2026-05-07 00:25 22.73492 61.63046 36785 ft 512 kts 102°
2026-05-07 00:25 22.72048 61.70558 36782 ft 512 kts 102°
2026-05-07 00:26 22.70597 61.78079 36797 ft 511 kts 102°
2026-05-07 00:26 22.69135 61.85643 36800 ft 511 kts 102°
2026-05-07 00:27 22.67681 61.93148 36802 ft 511 kts 102°
2026-05-07 00:27 22.66211 62.00712 36786 ft 512 kts 102°
2026-05-07 00:28 22.64742 62.08248 36802 ft 512 kts 102°
2026-05-07 00:28 22.63276 62.15753 36797 ft 512 kts 102°
2026-05-07 00:29 22.61798 62.23301 36802 ft 512 kts 102°
2026-05-07 00:30 22.58833 62.38380 36795 ft 512 kts 102°
2026-05-07 00:30 22.57353 62.45878 36794 ft 512 kts 102°
2026-05-07 00:31 22.55861 62.53419 36808 ft 512 kts 102°
2026-05-07 00:31 22.54368 62.60941 36810 ft 512 kts 102°
2026-05-07 00:32 22.52877 62.68435 36808 ft 512 kts 102°
2026-05-07 00:32 22.51372 62.75986 36809 ft 512 kts 102°
2026-05-07 00:33 22.49884 62.83429 36793 ft 512 kts 102°
2026-05-07 00:33 22.48376 62.90956 36800 ft 512 kts 102°
2026-05-07 00:34 22.46865 62.98477 36809 ft 512 kts 102°
2026-05-07 00:34 22.45351 63.05997 36817 ft 512 kts 102°
2026-05-07 00:35 22.43472 63.13345 36817 ft 511 kts 111°
2026-05-07 00:35 22.40540 63.20341 36815 ft 511 kts 116°
2026-05-07 00:36 22.37439 63.27255 36817 ft 511 kts 116°
2026-05-07 00:36 22.34359 63.34182 36798 ft 511 kts 116°
2026-05-07 00:37 22.31306 63.41117 36797 ft 511 kts 116°
2026-05-07 00:37 22.28261 63.48057 36816 ft 512 kts 116°
2026-05-07 00:38 22.25214 63.54992 36814 ft 512 kts 116°
2026-05-07 00:38 22.22159 63.61928 36818 ft 512 kts 116°
2026-05-07 00:39 22.19098 63.68866 36814 ft 512 kts 116°
2026-05-07 00:39 22.16037 63.75793 36801 ft 512 kts 116°
2026-05-07 00:40 22.12974 63.82717 36818 ft 511 kts 116°
2026-05-07 00:40 22.09906 63.89642 36822 ft 511 kts 116°
2026-05-07 00:41 22.06859 63.96509 36801 ft 511 kts 116°
2026-05-07 00:41 22.03878 64.03220 36820 ft 511 kts 116°
2026-05-07 00:42 22.00799 64.10140 36818 ft 511 kts 116°
2026-05-07 00:42 21.97736 64.17018 36803 ft 511 kts 116°
2026-05-07 00:43 21.94649 64.23939 36816 ft 511 kts 116°
2026-05-07 00:43 21.91580 64.30809 36817 ft 511 kts 116°
2026-05-07 00:44 21.88482 64.37736 36808 ft 511 kts 116°
2026-05-07 00:44 21.85406 64.44601 36824 ft 511 kts 116°
2026-05-07 00:45 21.82327 64.51467 36824 ft 511 kts 116°
2026-05-07 00:45 21.79224 64.58376 36825 ft 511 kts 116°
2026-05-07 00:46 21.76141 64.65231 36819 ft 511 kts 116°
2026-05-07 00:46 21.73034 64.72131 36823 ft 511 kts 116°
2026-05-07 00:47 21.69921 64.79035 36823 ft 511 kts 116°
2026-05-07 00:47 21.66828 64.85885 36819 ft 512 kts 116°
2026-05-07 00:48 21.63712 64.92776 36825 ft 512 kts 116°
2026-05-07 00:48 21.60591 64.99668 36827 ft 512 kts 116°
2026-05-07 00:49 21.57491 65.06505 36824 ft 512 kts 116°
2026-05-07 00:49 21.54364 65.13394 36824 ft 512 kts 116°
2026-05-07 00:50 21.51237 65.20273 36830 ft 512 kts 117°
2026-05-07 00:50 21.48112 65.27138 36826 ft 512 kts 117°
2026-05-07 00:51 21.44997 65.33972 36828 ft 512 kts 117°
2026-05-07 00:51 21.41854 65.40859 36830 ft 512 kts 117°
2026-05-07 00:52 21.38713 65.47733 36830 ft 512 kts 117°
2026-05-07 00:52 21.35589 65.54560 36833 ft 512 kts 117°
2026-05-07 00:53 21.32450 65.61409 36834 ft 512 kts 117°
2026-05-07 00:53 21.29299 65.68278 36834 ft 512 kts 117°
2026-05-07 00:54 21.26150 65.75133 36832 ft 512 kts 117°
2026-05-07 00:54 21.23007 65.81964 36834 ft 512 kts 117°
2026-05-07 00:55 21.19860 65.88798 36832 ft 512 kts 117°
2026-05-07 00:55 21.16696 65.95658 36833 ft 512 kts 117°
2026-05-07 00:56 21.13545 66.02480 36832 ft 512 kts 117°
2026-05-07 00:56 21.10389 66.09306 36837 ft 512 kts 117°
2026-05-07 00:57 21.07216 66.16160 36837 ft 512 kts 117°
2026-05-07 00:57 21.04059 66.22968 36833 ft 512 kts 117°
2026-05-07 00:58 21.00883 66.29811 36833 ft 512 kts 117°
2026-05-07 00:58 20.97725 66.36605 36835 ft 512 kts 117°
2026-05-07 00:59 20.92951 66.46860 36838 ft 512 kts 117°
2026-05-07 01:00 20.89768 66.53687 36837 ft 512 kts 117°
2026-05-07 01:00 20.86599 66.60476 36837 ft 512 kts 117°
2026-05-07 01:01 20.83411 66.67294 36835 ft 512 kts 117°
2026-05-07 01:01 20.80749 66.72983 36834 ft 513 kts 117°
2026-05-07 01:02 20.77561 66.79787 36830 ft 512 kts 117°
2026-05-07 01:02 20.74361 66.86607 36836 ft 512 kts 117°
2026-05-07 01:03 20.71178 66.93383 36847 ft 512 kts 117°
2026-05-07 01:03 20.67971 67.00202 36837 ft 512 kts 117°
2026-05-07 01:04 20.64782 67.06975 36834 ft 512 kts 117°
2026-05-07 01:04 20.61572 67.13782 36837 ft 512 kts 118°
2026-05-07 01:05 20.58378 67.20548 36839 ft 512 kts 118°
2026-05-07 01:05 20.55163 67.27351 36835 ft 512 kts 118°
2026-05-07 01:06 20.51947 67.34145 36832 ft 512 kts 118°
2026-05-07 01:06 20.48744 67.40904 36838 ft 512 kts 118°
2026-05-07 01:07 20.45538 67.47663 36834 ft 512 kts 118°
2026-05-07 01:07 20.42315 67.54447 36835 ft 511 kts 118°
2026-05-07 01:08 20.39111 67.61185 36834 ft 511 kts 118°
2026-05-07 01:08 20.35908 67.67911 36835 ft 511 kts 118°
2026-05-07 01:09 20.32682 67.74677 36834 ft 511 kts 118°
2026-05-07 01:09 20.29461 67.81425 36836 ft 510 kts 118°
2026-05-07 01:10 20.26249 67.88145 36836 ft 510 kts 118°
2026-05-07 01:10 20.23019 67.94894 36835 ft 510 kts 118°
2026-05-07 01:11 20.19793 68.01628 36830 ft 510 kts 118°
2026-05-07 01:11 20.16582 68.08323 36834 ft 510 kts 118°
2026-05-07 01:12 20.13352 68.15047 36835 ft 510 kts 118°
2026-05-07 01:12 20.10133 68.21743 36837 ft 510 kts 118°
2026-05-07 01:13 20.06897 68.28465 36832 ft 509 kts 118°
2026-05-07 01:13 20.03673 68.35154 36834 ft 509 kts 118°
2026-05-07 01:14 20.00430 68.41875 36831 ft 509 kts 118°
2026-05-07 01:14 19.97204 68.48553 36832 ft 509 kts 118°
2026-05-07 01:15 19.93967 68.55243 36834 ft 509 kts 118°
2026-05-07 01:15 19.90728 68.61933 36834 ft 508 kts 118°
2026-05-07 01:16 19.87482 68.68627 36829 ft 508 kts 118°
2026-05-07 01:16 19.84254 68.75277 36832 ft 508 kts 118°
2026-05-07 01:17 19.81014 68.81944 36829 ft 508 kts 118°
2026-05-07 01:17 19.77791 68.88570 36830 ft 507 kts 118°
2026-05-07 01:18 19.74543 68.95237 36827 ft 507 kts 118°
2026-05-07 01:18 19.71295 69.01898 36829 ft 507 kts 118°
2026-05-07 01:19 19.68066 69.08510 36827 ft 507 kts 118°
2026-05-07 01:19 19.64811 69.15172 36826 ft 507 kts 118°
2026-05-07 01:20 19.61577 69.21780 36829 ft 507 kts 118°
2026-05-07 01:20 19.58317 69.28437 36828 ft 507 kts 118°
2026-05-07 01:21 19.55070 69.35057 36826 ft 507 kts 118°
2026-05-07 01:21 19.51845 69.41746 36827 ft 508 kts 118°
2026-05-07 01:22 19.48674 69.48405 36828 ft 508 kts 118°
2026-05-07 01:22 19.45500 69.55057 36827 ft 508 kts 118°
2026-05-07 01:23 19.42297 69.61741 36828 ft 508 kts 118°
2026-05-07 01:23 19.39090 69.68421 36827 ft 507 kts 118°
2026-05-07 01:24 19.35904 69.75050 36829 ft 507 kts 118°
2026-05-07 01:24 19.32695 69.81719 36827 ft 507 kts 118°
2026-05-07 01:25 19.29508 69.88337 36829 ft 506 kts 118°
2026-05-07 01:25 19.26295 69.95000 36827 ft 506 kts 118°
2026-05-07 01:26 19.23110 70.01599 36825 ft 506 kts 118°
2026-05-07 01:26 19.19900 70.08243 36822 ft 505 kts 118°
2026-05-07 01:27 19.16710 70.14838 36824 ft 505 kts 118°
2026-05-07 01:27 19.14014 70.21714 36829 ft 506 kts 107°
2026-05-07 01:28 19.12636 70.28969 36827 ft 507 kts 96°
2026-05-07 01:28 19.12000 70.36408 36831 ft 507 kts 95°
2026-05-07 01:29 19.11404 70.43857 36821 ft 508 kts 95°
2026-05-07 01:29 19.10767 70.51268 36822 ft 509 kts 96°
2026-05-07 01:30 19.10095 70.58731 36822 ft 509 kts 96°
2026-05-07 01:30 19.09412 70.66202 36822 ft 509 kts 96°
2026-05-07 01:31 19.08733 70.73628 36821 ft 510 kts 96°
2026-05-07 01:31 19.08048 70.81093 36821 ft 510 kts 96°
2026-05-07 01:32 19.07364 70.88531 36822 ft 510 kts 96°
2026-05-07 01:32 19.06674 70.95996 36820 ft 510 kts 96°
2026-05-07 01:33 19.05980 71.03480 36822 ft 510 kts 96°
2026-05-07 01:33 19.05284 71.10944 36822 ft 510 kts 96°
2026-05-07 01:34 19.04584 71.18414 36825 ft 510 kts 96°
2026-05-07 01:34 19.03884 71.25854 36824 ft 510 kts 96°
2026-05-07 01:35 19.03177 71.33335 36824 ft 510 kts 96°
2026-05-07 01:35 19.02474 71.40745 36823 ft 510 kts 96°
2026-05-07 01:36 19.01761 71.48225 36828 ft 510 kts 96°
2026-05-07 01:36 19.01047 71.55692 36828 ft 510 kts 96°
2026-05-07 01:37 19.00333 71.63118 36827 ft 510 kts 96°
2026-05-07 01:37 18.99970 71.66879 36214 ft 520 kts 96°
2026-05-07 01:37 18.99600 71.70706 35471 ft 522 kts 96°
2026-05-07 01:37 18.99235 71.74478 34585 ft 522 kts 96°
2026-05-07 01:38 18.98867 71.78270 33646 ft 513 kts 96°
2026-05-07 01:38 18.98504 71.82000 32621 ft 505 kts 96°
2026-05-07 01:38 18.98147 71.85662 31684 ft 497 kts 95°
2026-05-07 01:38 18.97792 71.89299 30723 ft 499 kts 95°
2026-05-07 01:39 18.97437 71.92924 30084 ft 503 kts 95°
2026-05-07 01:39 18.97072 71.96657 29311 ft 513 kts 95°
2026-05-07 01:39 18.96707 72.00377 28592 ft 514 kts 95°
2026-05-07 01:39 18.96341 72.04078 27707 ft 498 kts 95°
2026-05-07 01:40 18.95983 72.07689 26544 ft 487 kts 94°
2026-05-07 01:40 18.95634 72.11208 25164 ft 477 kts 94°
2026-05-07 01:40 18.95289 72.14686 23742 ft 471 kts 94°
2026-05-07 01:40 18.94952 72.18079 22140 ft 466 kts 94°
2026-05-07 01:41 18.94618 72.21452 20750 ft 456 kts 94°
2026-05-07 01:41 18.94291 72.24733 19546 ft 442 kts 94°
2026-05-07 01:41 18.93974 72.27911 18396 ft 429 kts 95°
2026-05-07 01:41 18.93665 72.31010 17093 ft 418 kts 95°
2026-05-07 01:42 18.93365 72.34025 15803 ft 407 kts 96°
2026-05-07 01:42 18.93075 72.36926 14615 ft 396 kts 97°
2026-05-07 01:42 18.92884 72.38839 14243 ft 378 kts 97°
2026-05-07 01:43 18.92586 72.41816 13753 ft 370 kts 97°
2026-05-07 01:43 18.92312 72.44525 13209 ft 372 kts 97°
2026-05-07 01:43 18.92035 72.47264 12690 ft 377 kts 97°
2026-05-07 01:43 18.91755 72.50034 12157 ft 379 kts 97°
2026-05-07 01:44 18.91475 72.52798 11638 ft 377 kts 97°
2026-05-07 01:44 18.91201 72.55513 11126 ft 374 kts 97°
2026-05-07 01:44 18.90926 72.58230 10813 ft 365 kts 97°
2026-05-07 01:44 18.90660 72.60851 10647 ft 353 kts 97°
2026-05-07 01:45 18.90531 72.63401 10487 ft 342 kts 91°
2026-05-07 01:45 18.90613 72.65881 10337 ft 332 kts 88°
2026-05-07 01:45 18.90749 72.68241 10203 ft 321 kts 88°
2026-05-07 01:45 18.90886 72.70570 10065 ft 312 kts 88°
2026-05-07 01:46 18.91009 72.72827 9838 ft 306 kts 88°
2026-05-07 01:46 18.91118 72.75028 9560 ft 295 kts 88°
2026-05-07 01:46 18.91216 72.77158 9112 ft 287 kts 88°
2026-05-07 01:46 18.91306 72.79224 8780 ft 275 kts 88°
2026-05-07 01:47 18.91390 72.81214 8452 ft 264 kts 88°
2026-05-07 01:47 18.91468 72.83096 8180 ft 255 kts 88°
2026-05-07 01:47 18.91544 72.85009 7955 ft 267 kts 88°
2026-05-07 01:47 18.91624 72.87009 7796 ft 276 kts 88°
2026-05-07 01:48 18.91705 72.89053 7526 ft 279 kts 88°
2026-05-07 01:48 18.91785 72.91072 7231 ft 278 kts 88°
2026-05-07 01:48 18.91865 72.93108 6937 ft 276 kts 87°
2026-05-07 01:48 18.91944 72.95135 6640 ft 275 kts 87°
2026-05-07 01:49 18.92023 72.97154 6357 ft 274 kts 87°
2026-05-07 01:49 18.92102 72.99167 6037 ft 274 kts 87°
2026-05-07 01:49 18.92181 73.01180 5726 ft 273 kts 87°
2026-05-07 01:49 18.92258 73.03158 5430 ft 272 kts 86°
2026-05-07 01:50 18.92335 73.05162 5133 ft 272 kts 86°
2026-05-07 01:50 18.92412 73.07157 4827 ft 271 kts 86°
2026-05-07 01:50 18.92489 73.09149 4548 ft 271 kts 86°
2026-05-07 01:50 18.92565 73.11136 4311 ft 267 kts 85°
2026-05-07 01:51 18.92614 73.12416 4234 ft 262 kts 86°
2026-05-07 01:51 18.92708 73.14916 4073 ft 251 kts 86°
2026-05-07 01:51 18.92781 73.16724 4020 ft 240 kts 85°
2026-05-07 01:51 18.92874 73.18444 3988 ft 229 kts 78°
2026-05-07 01:52 18.93211 73.19496 3955 ft 231 kts 56°
2026-05-07 01:52 18.94367 73.20670 3967 ft 236 kts 25°
2026-05-07 01:52 18.96495 73.21104 3956 ft 236 kts
2026-05-07 01:52 18.98138 73.21128 3933 ft 236 kts
2026-05-07 01:53 18.99250 73.21134 3842 ft 236 kts
2026-05-07 01:53 19.00870 73.21140 3708 ft 235 kts
2026-05-07 01:53 19.02503 73.21143 3588 ft 232 kts 360°
2026-05-07 01:53 19.04109 73.21143 3444 ft 230 kts
2026-05-07 01:54 19.05708 73.21143 3336 ft 229 kts
2026-05-07 01:54 19.07287 73.21010 3187 ft 228 kts 341°
2026-05-07 01:54 19.08582 73.20068 3136 ft 232 kts 308°
2026-05-07 01:54 19.09181 73.18509 3083 ft 232 kts 278°
2026-05-07 01:55 19.09253 73.16859 3034 ft 218 kts 273°
2026-05-07 01:55 19.09259 73.15322 3018 ft 202 kts 272°
2026-05-07 01:55 19.09246 73.13817 3089 ft 204 kts 271°
2026-05-07 01:55 19.09227 73.12326 3039 ft 200 kts 271°
2026-05-07 01:56 19.09206 73.10873 3027 ft 196 kts 272°
2026-05-07 01:56 19.09186 73.09446 3036 ft 196 kts 272°
2026-05-07 01:56 19.09166 73.07994 3040 ft 198 kts 271°
2026-05-07 01:56 19.09145 73.06531 3046 ft 199 kts 271°
2026-05-07 01:57 19.09124 73.05056 3045 ft 201 kts 271°
2026-05-07 01:57 19.09104 73.03576 2844 ft 201 kts 271°
2026-05-07 01:57 19.09084 73.02126 2575 ft 191 kts 271°
2026-05-07 01:57 19.09064 73.00777 2354 ft 177 kts 271°
2026-05-07 01:58 19.09046 72.99489 2146 ft 176 kts 271°
2026-05-07 01:58 19.09029 72.98224 1893 ft 166 kts 271°
2026-05-07 01:58 19.09013 72.97049 1699 ft 153 kts 271°
2026-05-07 01:58 19.08998 72.95911 1509 ft 155 kts 271°
2026-05-07 01:59 19.08982 72.94785 1302 ft 152 kts 271°
2026-05-07 01:59 19.08966 72.93675 1101 ft 150 kts 271°
2026-05-07 01:59 19.08952 72.92584 927 ft 151 kts 271°
2026-05-07 01:59 19.08937 72.91474 746 ft 152 kts 270°
2026-05-07 02:00 19.08921 72.90342 565 ft 155 kts 269°
2026-05-07 02:00 19.08904 72.89218 359 ft 151 kts 269°
2026-05-07 02:00 19.08890 72.88119 146 ft 148 kts 270°
2026-05-07 02:00 19.08872 72.87029 44 ft 145 kts 269°
2026-05-07 02:01 19.08858 72.86062 34 ft 118 kts 268°
2026-05-07 02:01 19.08851 72.85366 38 ft 50 kts 269°
2026-05-07 02:01 19.08872 72.85153 37 ft 22 kts 309°
2026-05-07 02:01 19.08975 72.85131 38 ft 14 kts 19°
2026-05-07 02:02 19.09020 72.85214 38 ft 14 kts 91°
2026-05-07 02:02 19.09018 72.85320 38 ft 14 kts 89°
2026-05-07 02:02 19.09022 72.85426 38 ft 14 kts 87°
2026-05-07 02:02 19.09024 72.85532 38 ft 14 kts 89°
2026-05-07 02:03 19.09026 72.85637 37 ft 14 kts 88°
2026-05-07 02:03 19.09027 72.85742 37 ft 14 kts 90°
2026-05-07 02:03 19.09027 72.85848 37 ft 14 kts 90°
2026-05-07 02:03 19.09029 72.85953 37 ft 14 kts 88°
2026-05-07 02:04 19.09031 72.86059 37 ft 15 kts 88°
2026-05-07 02:04 19.09034 72.86200 36 ft 25 kts 89°
2026-05-07 02:04 19.09036 72.86389 36 ft 26 kts 90°
2026-05-07 02:04 19.09040 72.86578 35 ft 26 kts 88°
2026-05-07 02:05 19.09043 72.86767 37 ft 26 kts 89°
2026-05-07 02:05 19.09044 72.86956 38 ft 26 kts 90°
2026-05-07 02:05 19.09044 72.87117 38 ft 19 kts 88°
2026-05-07 02:05 19.09051 72.87223 38 ft 14 kts 81°
2026-05-07 02:06 19.09126 72.87267 38 ft 14 kts 356°
2026-05-07 02:06 19.09214 72.87278 38 ft 12 kts 31°
2026-05-07 02:06 19.09252 72.87350 38 ft 7 kts 49°
2026-05-07 02:06 19.09299 72.87362 38 ft 7 kts
2026-05-07 02:07 19.09348 72.87364 38 ft 7 kts 10°
2026-05-07 02:07 19.09412 72.87406 38 ft 2 kts
2026-05-07 02:07 19.09426 72.87398 38 ft 2 kts 325°
2026-05-07 02:08 19.09440 72.87384 38 ft 3 kts 317°
2026-05-07 02:08 19.09459 72.87365 45 ft 4 kts 317°
2026-05-07 02:08 19.09476 72.87348 38 ft 0 kts 317°
2026-05-07 02:08 19.09477 72.87347 38 ft 0 kts 317°